Location: Kosice
(0.0000°N, 21.2500°E)
Time: 18:33:00
(UTC+01:00)

Cosmos 2297 - Pass Details

Date: 24 January 2021
Orbit: 834 x 860 km, 71.0° (Epoch: 01 March)

Event Time Altitude Azimuth Distance (km) Brightness Sun altitude
Rises 18:42:38 0° 193° (SSW) 3,379 7.3 -13.1°
Reaches altitude 10° 18:45:05 10° 191° (S) 2,445 6.5 -13.7°
Maximum altitude 18:50:41 77° 106° (ESE) 860 3.6 -15.0°
Drops below altitude 10° 18:56:17 10° 19° (NNE) 2,449 5.7 -16.3°
Enters shadow 18:56:20 10° 19° (NNE) 2,463 5.8 -16.3°
